Fort Indiantown Gap, PA

7:22 PM EDT on September 22, 2017 (GMT -0400)
Muir Army Air Field

Weather History for KMUI - October, 2012

Change the Weather History Date:

Saturday, October 27, 2012

  Actual Average Record
Temperature  
Mean Temperature 60 °F -  
Max Temperature 63 °F 57 °F 70 °F (2010)
Min Temperature 57 °F 40 °F 30 °F (2015)
Degree Days  
Heating Degree Days 5    
Growing Degree Days 10 (Base 50)    
Moisture  
Dew Point 56 °F    
Average Humidity 84    
Maximum Humidity 96    
Minimum Humidity 72    
Precipitation  
Precipitation 0.00 in - - ()
Sea Level Pressure  
Sea Level Pressure 29.99 in    
Wind  
Wind Speed 3 mph (ENE)    
Max Wind Speed 8 mph    
Max Gust Speed -    
Visibility 4 miles    
Events      
Averages and records for this station are not official NWS values.
T = Trace of Precipitation, MM = Missing Value Source: NWS Daily Summary

Daily Weather History Graph

Daily Weather History Graph

Search for Another Location

Airport or City:

Trip Planner

Search our weather history database for the weather conditions in past years. The results will help you decide how hot, cold, wet, or windy it might be!

Date:

Astronomy

Oct. 27, 2012 Rise Set
Actual Time 7:30 AM EDT 6:08 PM EDT
Civil Twilight 7:02 AM EDT 6:36 PM EDT
Nautical Twilight 6:30 AM EDT 7:08 PM EDT
Astronomical Twilight 5:59 AM EDT 7:40 PM EDT
Moon 4:53 PM EDT (10/27) 5:23 AM EDT (10/27)
Length of Visible Light 11h 33m
Length of Day
10h 37m
Waxing Gibbous, 96% of the Moon is Illuminated
Oct 27
Waxing Gibbous
Oct 29
Full
Nov 6
Last Quarter
Nov 13
New
Nov 20
First Quarter

Hourly Weather History & Observations

Time (EDT) Temp. Dew Point Humidity Pressure Visibility Wind Dir Wind Speed Gust Speed Precip Events Conditions
12:55 AM 60.3 °F 57.7 °F 91% 30.08 in 4.0 mi NE 3.5 mph - N/A   Mostly Cloudy
1:01 AM 60.8 °F 57.2 °F 88% 30.08 in 4.0 mi Calm Calm - N/A   Mostly Cloudy
1:06 AM 60.8 °F 57.2 °F 88% 30.08 in 4.0 mi NE 3.5 mph - N/A   Mostly Cloudy
1:55 AM 60.3 °F 57.7 °F 91% 30.06 in 5.0 mi ENE 4.6 mph - N/A   Overcast
2:55 AM 60.1 °F 57.6 °F 91% 30.05 in 5.0 mi NE 4.6 mph - N/A   Overcast
3:14 AM 60.8 °F 57.2 °F 88% 30.04 in 4.0 mi ENE 4.6 mph - N/A   Overcast
3:45 AM 60.8 °F 57.2 °F 88% 30.03 in 5.0 mi Calm Calm - N/A   Overcast
3:55 AM 59.9 °F 57.6 °F 92% 30.03 in 5.0 mi NE 3.5 mph - N/A   Overcast
4:55 AM 59.9 °F 57.6 °F 92% 30.02 in 4.0 mi Calm Calm - N/A   Mostly Cloudy
5:55 AM 59.2 °F 57.7 °F 95% 30.01 in 4.0 mi Calm Calm - N/A   Overcast
6:55 AM 59.4 °F 57.9 °F 95% 30.02 in 4.0 mi ENE 4.6 mph - N/A   Overcast
7:11 AM 59.0 °F 57.2 °F 94% 30.02 in 4.0 mi ENE 3.5 mph - N/A   Mostly Cloudy
7:55 AM 59.2 °F 58.1 °F 96% 30.02 in 3.0 mi ENE 4.6 mph - N/A   Overcast
8:55 AM 59.7 °F 57.9 °F 94% 30.04 in 3.0 mi Variable 3.5 mph - N/A   Overcast
9:55 AM 60.1 °F 55.9 °F 86% 30.03 in 4.0 mi ENE 4.6 mph - N/A   Haze
10:55 AM 59.9 °F 55.6 °F 86% 30.02 in 4.0 mi Calm Calm - N/A   Haze
11:55 AM 60.8 °F 55.4 °F 82% 30.01 in 4.0 mi East 4.6 mph - N/A   Haze
12:55 PM 62.4 °F 55.2 °F 77% 29.98 in 3.0 mi NE 3.5 mph - N/A   Haze
1:10 PM 62.6 °F 55.4 °F 77% 29.98 in 2.5 mi SSE 5.8 mph - N/A   Haze
1:36 PM 62.6 °F 55.4 °F 77% 29.97 in 3.0 mi East 6.9 mph - N/A   Haze
1:43 PM 62.6 °F 53.6 °F 72% 29.97 in 5.0 mi East 8.1 mph - N/A   Haze
1:53 PM 62.6 °F 53.6 °F 72% 29.97 in 5.0 mi ESE 5.8 mph - N/A   Haze
1:55 PM 61.9 °F 54.1 °F 76% 29.97 in 4.0 mi ESE 6.9 mph - N/A   Haze
1:56 PM 62.6 °F 53.6 °F 72% 29.97 in 4.0 mi ESE 8.1 mph - N/A   Haze
1:58 PM 62.6 °F 53.6 °F 72% 29.97 in 4.0 mi East 5.8 mph - N/A   Haze
2:55 PM 63.1 °F 54.7 °F 74% 29.94 in 6.0 mi ENE 5.8 mph - N/A   Haze
2:58 PM 62.6 °F 55.4 °F 77% 29.94 in 6.0 mi East 5.8 mph - N/A   Haze
3:55 PM 63.3 °F 54.9 °F 74% 29.94 in 6.0 mi NE 3.5 mph - N/A   Haze
4:55 PM 62.2 °F 54.0 °F 74% 29.95 in 5.0 mi ENE 5.8 mph - N/A   Haze
5:55 PM 61.3 °F 54.0 °F 77% 29.94 in 5.0 mi Calm Calm - N/A   Haze
6:55 PM 58.8 °F 53.8 °F 83% 29.94 in 5.0 mi Calm Calm - N/A   Haze
7:55 PM 58.3 °F 53.8 °F 85% 29.94 in 5.0 mi Calm Calm - N/A   Haze
8:55 PM 58.8 °F 52.7 °F 80% 29.93 in 6.0 mi NE 3.5 mph - N/A   Haze
9:55 PM 58.3 °F 52.7 °F 82% 29.92 in 6.0 mi NE 3.5 mph - N/A   Haze
10:55 PM 57.4 °F 52.5 °F 84% 29.92 in 5.0 mi Calm Calm - N/A   Haze
11:55 PM 57.4 °F 53.1 °F 85% 29.91 in 6.0 mi NNE 4.6 mph - N/A   Haze